LNR76DL LFML-LFBO

Flight info

Callsign LNR76DL
Flight time N/A
Altitude 18000
Route FJR DCT AFRIC
Aircraft AT76/M-SDFGIRY/S

Departure

Time 2026-05-08 07:52
Airport Marseille Provence Airport (LFML)

Arrival

Time N/A
Airport Toulouse-Blagnac Airport (LFBO)
Time Latitude Longitude Altitude Speed Heading
2026-05-08 07:42 43.44164 5.21767 34 ft 0 kts 89°
2026-05-08 07:43 43.44158 5.21785 34 ft 4 kts 128°
2026-05-08 07:43 43.44135 5.21790 34 ft 6 kts 194°
2026-05-08 07:43 43.44093 5.21773 34 ft 3 kts 204°
2026-05-08 07:44 43.44060 5.21740 34 ft 8 kts 221°
2026-05-08 07:44 43.44013 5.21682 34 ft 10 kts 223°
2026-05-08 07:44 43.43960 5.21611 34 ft 11 kts 225°
2026-05-08 07:44 43.43920 5.21529 34 ft 10 kts 264°
2026-05-08 07:45 43.43936 5.21467 34 ft 4 kts 310°
2026-05-08 07:45 43.43966 5.21420 34 ft 8 kts 314°
2026-05-08 07:45 43.44012 5.21356 34 ft 10 kts 315°
2026-05-08 07:45 43.44063 5.21284 34 ft 11 kts 314°
2026-05-08 07:46 43.44118 5.21207 34 ft 11 kts 315°
2026-05-08 07:46 43.44174 5.21128 33 ft 12 kts 314°
2026-05-08 07:46 43.44223 5.21059 33 ft 9 kts 314°
2026-05-08 07:46 43.44242 5.21030 33 ft 5 kts 310°
2026-05-08 07:47 43.44272 5.20979 33 ft 8 kts 304°
2026-05-08 07:47 43.44298 5.20916 33 ft 9 kts 298°
2026-05-08 07:47 43.44311 5.20852 33 ft 7 kts 269°
2026-05-08 07:47 43.44294 5.20794 33 ft 7 kts 232°
2026-05-08 07:48 43.44252 5.20739 32 ft 9 kts 227°
2026-05-08 07:48 43.44221 5.20670 31 ft 6 kts 241°
2026-05-08 07:48 43.44199 5.20614 32 ft 7 kts 242°
2026-05-08 07:48 43.44175 5.20556 33 ft 8 kts 241°
2026-05-08 07:49 43.44151 5.20494 33 ft 6 kts 240°
2026-05-08 07:49 43.44142 5.20473 33 ft 0 kts 239°
2026-05-08 07:49 43.44141 5.20471 33 ft 2 kts 239°
2026-05-08 07:50 43.44119 5.20427 32 ft 8 kts 225°
2026-05-08 07:50 43.44069 5.20410 30 ft 8 kts 164°
2026-05-08 07:50 43.44028 5.20447 29 ft 1 kts 137°
2026-05-08 07:51 43.44014 5.20466 29 ft 19 kts 135°
2026-05-08 07:51 43.43814 5.20744 30 ft 88 kts 134°
2026-05-08 07:52 43.43192 5.21581 302 ft 147 kts 135°
2026-05-08 07:52 43.42657 5.22290 569 ft 175 kts 135°
2026-05-08 07:52 43.41638 5.23415 945 ft 199 kts 145°
2026-05-08 07:52 43.40403 5.24515 1332 ft 221 kts 147°
2026-05-08 07:53 43.39062 5.25676 1726 ft 233 kts 147°
2026-05-08 07:53 43.37728 5.26856 2088 ft 240 kts 146°
2026-05-08 07:53 43.36329 5.28149 2485 ft 243 kts 146°
2026-05-08 07:53 43.34802 5.28880 2860 ft 246 kts 177°
2026-05-08 07:54 43.33153 5.28263 3233 ft 251 kts 211°
2026-05-08 07:54 43.32026 5.26577 3610 ft 253 kts 238°
2026-05-08 07:54 43.31134 5.24440 3989 ft 256 kts 240°
2026-05-08 07:54 43.30265 5.22345 4332 ft 254 kts 239°
2026-05-08 07:55 43.29345 5.20302 4698 ft 248 kts 236°
2026-05-08 07:55 43.28388 5.18358 5070 ft 246 kts 234°
2026-05-08 07:55 43.27414 5.16431 5439 ft 244 kts 234°
2026-05-08 07:55 43.26452 5.14508 5827 ft 244 kts 234°
2026-05-08 07:56 43.25498 5.12583 6213 ft 244 kts 234°
2026-05-08 07:56 43.24547 5.10664 6587 ft 244 kts 234°
2026-05-08 07:56 43.23587 5.08742 6951 ft 244 kts 234°
2026-05-08 07:56 43.22630 5.06815 7324 ft 244 kts 234°
2026-05-08 07:57 43.21671 5.04879 7702 ft 244 kts 234°
2026-05-08 07:57 43.20983 5.02805 8070 ft 242 kts 261°
2026-05-08 07:57 43.21105 5.00522 8456 ft 242 kts 281°
2026-05-08 07:57 43.21575 4.98314 8844 ft 243 kts 289°
2026-05-08 07:58 43.22178 4.96170 9230 ft 244 kts 291°
2026-05-08 07:58 43.22815 4.93980 9641 ft 245 kts 291°
2026-05-08 07:58 43.23428 4.91808 10025 ft 245 kts 290°
2026-05-08 07:58 43.24010 4.89611 10378 ft 245 kts 289°
2026-05-08 07:59 43.24571 4.87456 10735 ft 245 kts 289°
2026-05-08 07:59 43.25146 4.85241 11110 ft 245 kts 289°
2026-05-08 07:59 43.25718 4.83042 11482 ft 244 kts 289°
2026-05-08 07:59 43.26269 4.80906 11855 ft 243 kts 289°
2026-05-08 08:00 43.26829 4.78750 12232 ft 242 kts 289°
2026-05-08 08:00 43.27379 4.76633 12608 ft 242 kts 288°
2026-05-08 08:00 43.27940 4.74463 13004 ft 241 kts 289°
2026-05-08 08:00 43.28510 4.72305 13397 ft 239 kts 291°
2026-05-08 08:01 43.29254 4.70261 13796 ft 238 kts 298°
2026-05-08 08:01 43.30087 4.68304 14158 ft 238 kts 300°
2026-05-08 08:01 43.30922 4.66366 14510 ft 238 kts 299°
2026-05-08 08:01 43.31746 4.64399 14873 ft 237 kts 298°
2026-05-08 08:02 43.32540 4.62420 15236 ft 235 kts 297°
2026-05-08 08:02 43.33321 4.60463 15613 ft 235 kts 297°
2026-05-08 08:02 43.34094 4.58520 15984 ft 234 kts 297°
2026-05-08 08:02 43.34861 4.56598 16358 ft 233 kts 297°
2026-05-08 08:03 43.35607 4.54716 16733 ft 232 kts 297°
2026-05-08 08:03 43.36408 4.52705 17135 ft 231 kts 297°
2026-05-08 08:03 43.37176 4.50774 17531 ft 229 kts 297°
2026-05-08 08:03 43.37938 4.48855 17894 ft 230 kts 297°
2026-05-08 08:04 43.38717 4.46900 17967 ft 241 kts 297°
2026-05-08 08:04 43.39480 4.44934 18001 ft 250 kts 296°
2026-05-08 08:04 43.40312 4.42786 18016 ft 258 kts 297°
2026-05-08 08:04 43.41173 4.40580 18027 ft 264 kts 297°
2026-05-08 08:05 43.42051 4.38339 18031 ft 269 kts 297°
2026-05-08 08:05 43.42939 4.36054 18036 ft 272 kts 297°
2026-05-08 08:05 43.43707 4.34084 18035 ft 274 kts 297°
2026-05-08 08:05 43.44618 4.31747 18037 ft 276 kts 297°
2026-05-08 08:06 43.45461 4.29573 18039 ft 277 kts 297°
2026-05-08 08:06 43.46385 4.27196 18050 ft 278 kts 297°
2026-05-08 08:06 43.47298 4.24840 18043 ft 279 kts 296°
2026-05-08 08:06 43.48206 4.22502 18046 ft 280 kts 297°
2026-05-08 08:07 43.49135 4.20105 18050 ft 281 kts 297°
2026-05-08 08:07 43.50052 4.17742 18043 ft 282 kts 296°
2026-05-08 08:07 43.50891 4.15569 18050 ft 282 kts 296°
2026-05-08 08:07 43.51827 4.13145 18043 ft 282 kts 297°
2026-05-08 08:08 43.52752 4.10747 18035 ft 282 kts 296°
2026-05-08 08:08 43.53655 4.08414 18042 ft 282 kts 296°
2026-05-08 08:08 43.54571 4.06039 18043 ft 281 kts 296°
2026-05-08 08:08 43.55487 4.03664 18047 ft 281 kts 296°
2026-05-08 08:09 43.56394 4.01318 18051 ft 281 kts 296°
2026-05-08 08:09 43.57309 3.98937 18046 ft 281 kts 296°
2026-05-08 08:09 43.58171 3.96533 18049 ft 277 kts 288°
2026-05-08 08:09 43.58641 3.93935 18048 ft 276 kts 280°
2026-05-08 08:10 43.59000 3.91377 18045 ft 276 kts 279°
2026-05-08 08:10 43.59364 3.88760 18050 ft 277 kts 279°
2026-05-08 08:10 43.59710 3.86188 18049 ft 278 kts 279°
2026-05-08 08:10 43.60057 3.83572 18047 ft 278 kts 279°
2026-05-08 08:11 43.60403 3.80941 18047 ft 279 kts 279°
2026-05-08 08:11 43.60749 3.78304 18048 ft 279 kts 279°
2026-05-08 08:11 43.61069 3.75844 18046 ft 279 kts 279°
2026-05-08 08:11 43.61382 3.73418 18046 ft 279 kts 279°
2026-05-08 08:12 43.61723 3.70786 18047 ft 280 kts 279°
2026-05-08 08:12 43.62070 3.68119 18045 ft 280 kts 279°
2026-05-08 08:12 43.62409 3.65505 18036 ft 280 kts 279°
2026-05-08 08:12 43.62745 3.62903 18035 ft 280 kts 279°
2026-05-08 08:13 43.63084 3.60261 18031 ft 280 kts 279°
2026-05-08 08:13 43.63425 3.57612 18034 ft 280 kts 279°
2026-05-08 08:13 43.63765 3.54968 18031 ft 280 kts 279°
2026-05-08 08:13 43.64103 3.52325 18026 ft 280 kts 279°
2026-05-08 08:14 43.64440 3.49685 18031 ft 280 kts 279°
2026-05-08 08:14 43.64779 3.47040 18025 ft 279 kts 279°
2026-05-08 08:14 43.65102 3.44499 18029 ft 279 kts 279°
2026-05-08 08:14 43.65438 3.41856 18020 ft 279 kts 279°
2026-05-08 08:15 43.65773 3.39211 18023 ft 279 kts 279°
2026-05-08 08:15 43.66089 3.36590 18016 ft 279 kts 278°
2026-05-08 08:15 43.66369 3.33939 18022 ft 279 kts 277°
2026-05-08 08:15 43.66590 3.31281 18039 ft 278 kts 275°
2026-05-08 08:16 43.66728 3.28619 18050 ft 278 kts 272°
2026-05-08 08:16 43.66753 3.25951 18039 ft 278 kts 268°
2026-05-08 08:16 43.66642 3.23274 18043 ft 278 kts 264°
2026-05-08 08:16 43.66369 3.20629 18084 ft 277 kts 258°
2026-05-08 08:17 43.65867 3.18084 18091 ft 277 kts 250°
2026-05-08 08:17 43.65073 3.15646 18057 ft 278 kts 241°
2026-05-08 08:17 43.63998 3.13437 18033 ft 279 kts 232°
2026-05-08 08:17 43.62647 3.11509 18036 ft 279 kts 222°
2026-05-08 08:18 43.61092 3.09966 18033 ft 279 kts 212°
2026-05-08 08:18 43.59299 3.08808 17981 ft 282 kts 201°
2026-05-08 08:18 43.57409 3.08181 17948 ft 285 kts 189°
2026-05-08 08:18 43.55422 3.08135 17949 ft 287 kts 176°
2026-05-08 08:19 43.53471 3.08741 17909 ft 290 kts 162°
2026-05-08 08:19 43.51668 3.10032 17828 ft 294 kts 146°
2026-05-08 08:19 43.50641 3.11252 17803 ft 296 kts 135°
2026-05-08 08:19 43.49752 3.12836 17788 ft 298 kts 123°
2026-05-08 08:20 43.48966 3.15464 17775 ft 299 kts 104°
2026-05-08 08:20 43.48848 3.18296 17685 ft 302 kts 83°
2026-05-08 08:20 43.49457 3.21022 17607 ft 302 kts 62°
2026-05-08 08:20 43.50766 3.23248 17571 ft 300 kts 38°
2026-05-08 08:21 43.52603 3.24572 17486 ft 298 kts 14°
2026-05-08 08:21 43.54650 3.24710 17368 ft 296 kts 348°
2026-05-08 08:21 43.56507 3.23575 17253 ft 293 kts 320°
2026-05-08 08:21 43.57707 3.21370 17111 ft 290 kts 290°
2026-05-08 08:22 43.57866 3.18633 16923 ft 290 kts 257°
2026-05-08 08:22 43.56828 3.16286 16695 ft 293 kts 220°